| time (UTC) | temp F | wind direction | speed MPH | gust MPH | rain 1hr in | rain 24hr in | rain mn in | humidity % | barometer mb |
| 20260508002450 | 45 | 67 | 2.0 | 2.0 | 0.00 | 0.00 | 0.00 | 84 | 1004.2 |
| 20260508002147 | 45 | 90 | 2.0 | 2.0 | 0.00 | 0.00 | 0.00 | 84 | 1004.2 |
| 20260508001847 | 45 | 45 | 1.0 | 1.0 | 0.00 | 0.00 | 0.00 | 84 | 1004.2 |
| 20260508001547 | 45 | 67 | 2.0 | 2.0 | 0.00 | 0.00 | 0.00 | 84 | 1004.2 |
| 20260508001248 | 45 | 90 | 5.0 | 5.0 | 0.00 | 0.00 | 0.00 | 84 | 1004.2 |
| 20260508000948 | 45 | 90 | 2.0 | 2.0 | 0.00 | 0.00 | 0.00 | 84 | 1004.2 |
| 20260508000648 | 45 | 90 | 2.0 | 2.0 | 0.00 | 0.00 | 0.00 | 83 | 1004.2 |
| 20260508000048 | 45 | 90 | 2.0 | 2.0 | 0.00 | 0.00 | 0.00 | 83 | 1004.2 |
| 20260507235747 | 45 | 90 | 2.0 | 2.0 | 0.00 | 0.00 | 0.00 | 83 | 1004.2 |
| 20260507235448 | 45 | 90 | 0.0 | 0.0 | 0.00 | 0.00 | 0.00 | 83 | 1004.2 |
| 20260507235147 | 45 | 45 | 0.0 | 0.0 | 0.00 | 0.00 | 0.00 | 83 | 1004.2 |
| 20260507234848 | 45 | 112 | 0.0 | 0.0 | 0.00 | 0.00 | 0.00 | 83 | 1004.2 |
| 20260507234547 | 45 | 337 | 0.0 | 0.0 | 0.00 | 0.00 | 0.00 | 83 | 1004.2 |
| 20260507233947 | 45 | 67 | 1.0 | 1.0 | 0.00 | 0.00 | 0.00 | 82 | 1004.2 |
| 20260507233647 | 45 | 90 | 0.0 | 0.0 | 0.00 | 0.00 | 0.00 | 82 | 1004.2 |
| 20260507233346 | 45 | 337 | 0.0 | 0.0 | 0.00 | 0.00 | 0.00 | 83 | 1004.2 |
| 20260507233048 | 45 | 90 | 0.0 | 0.0 | 0.00 | 0.00 | 0.00 | 82 | 1004.2 |
| 20260507232747 | 45 | 337 | 0.0 | 0.0 | 0.00 | 0.00 | 0.00 | 82 | 1004.2 |
| 20260507232147 | 45 | 337 | 0.0 | 0.0 | 0.00 | 0.00 | 0.00 | 83 | 1004.2 |
| 20260507231848 | 45 | 90 | 0.0 | 0.0 | 0.00 | 0.00 | 0.00 | 83 | 1004.2 |
| 20260507231548 | 45 | 337 | 0.0 | 0.0 | 0.00 | 0.00 | 0.00 | 83 | 1004.2 |
| 20260507231247 | 45 | 90 | 0.0 | 0.0 | 0.00 | 0.00 | 0.00 | 83 | 1004.2 |
| 20260507230947 | 45 | 337 | 0.0 | 0.0 | 0.00 | 0.00 | 0.00 | 83 | 1004.2 |
| 20260507230647 | 45 | 90 | 0.0 | 0.0 | 0.00 | 0.00 | 0.00 | 83 | 1004.2 |
| 20260507230350 | 45 | 135 | 0.0 | 0.0 | 0.00 | 0.00 | 0.00 | 83 | 1004.5 |
| 20260507230046 | 46 | 135 | 0.0 | 0.0 | 0.00 | 0.00 | 0.00 | 83 | 1004.5 |
| 20260507225747 | 46 | 90 | 0.0 | 0.0 | 0.00 | 0.00 | 0.00 | 83 | 1004.5 |
| 20260507225147 | 46 | 90 | 0.0 | 0.0 | 0.00 | 0.00 | 0.00 | 83 | 1004.2 |
| 20260507224847 | 46 | 90 | 0.0 | 0.0 | 0.00 | 0.00 | 0.00 | 83 | 1004.2 |
| 20260507224247 | 46 | 112 | 0.0 | 0.0 | 0.00 | 0.00 | 0.00 | 83 | 1004.2 |
| 20260507223948 | 46 | 337 | 0.0 | 0.0 | 0.00 | 0.00 | 0.00 | 83 | 1004.2 |
| 20260507223647 | 46 | 112 | 0.0 | 0.0 | 0.00 | 0.00 | 0.00 | 83 | 1004.2 |
| 20260507223348 | 46 | 112 | 0.0 | 0.0 | 0.00 | 0.00 | 0.00 | 83 | 1004.2 |
| 20260507223047 | 46 | 112 | 0.0 | 0.0 | 0.00 | 0.00 | 0.00 | 83 | 1004.5 |
| 20260507222750 | 46 | 90 | 0.0 | 0.0 | 0.00 | 0.00 | 0.00 | 82 | 1004.2 |
| 20260507222448 | 46 | 337 | 0.0 | 0.0 | 0.00 | 0.00 | 0.00 | 83 | 1004.2 |
| 20260507222147 | 46 | 90 | 1.0 | 1.0 | 0.00 | 0.00 | 0.00 | 82 | 1004.2 |
| 20260507221846 | 46 | 90 | 2.0 | 2.0 | 0.00 | 0.00 | 0.00 | 82 | 1004.2 |
| 20260507221548 | 46 | 90 | 1.0 | 1.0 | 0.00 | 0.00 | 0.00 | 82 | 1004.5 |
| 20260507221248 | 46 | 90 | 1.0 | 1.0 | 0.00 | 0.00 | 0.00 | 83 | 1004.2 |
| 20260507220947 | 46 | 90 | 0.0 | 0.0 | 0.00 | 0.00 | 0.00 | 83 | 1004.5 |
| 20260507220650 | 46 | 90 | 0.0 | 0.0 | 0.00 | 0.00 | 0.00 | 83 | 1004.5 |
| 20260507220348 | 46 | 90 | 0.0 | 0.0 | 0.00 | 0.00 | 0.00 | 83 | 1004.5 |
| 20260507220047 | 46 | 90 | 0.0 | 0.0 | 0.00 | 0.00 | 0.00 | 83 | 1004.2 |
| 20260507215748 | 46 | 90 | 0.0 | 0.0 | 0.00 | 0.00 | 0.56 | 82 | 1004.5 |
| 20260507215448 | 46 | 337 | 1.0 | 1.0 | 0.00 | 0.00 | 0.56 | 82 | 1004.2 |
| 20260507215150 | 46 | 90 | 1.0 | 1.0 | 0.00 | 0.00 | 0.56 | 83 | 1004.5 |
| 20260507214847 | 46 | 90 | 1.0 | 1.0 | 0.00 | 0.00 | 0.56 | 82 | 1004.2 |
| 20260507214548 | 46 | 90 | 1.0 | 1.0 | 0.00 | 0.00 | 0.56 | 82 | 1004.2 |
| 20260507214246 | 46 | 90 | 2.0 | 2.0 | 0.00 | 0.00 | 0.56 | 82 | 1004.2 |
| 20260507213947 | 46 | 90 | 0.0 | 0.0 | 0.00 | 0.00 | 0.56 | 82 | 1004.2 |
| 20260507213648 | 46 | 90 | 0.0 | 0.0 | 0.00 | 0.00 | 0.56 | 82 | 1004.2 |
| 20260507213350 | 46 | 90 | 0.0 | 0.0 | 0.00 | 0.00 | 0.56 | 82 | 1004.2 |
| 20260507213048 | 46 | 90 | 0.0 | 0.0 | 0.00 | 0.00 | 0.56 | 82 | 1004.2 |
| 20260507212747 | 46 | 67 | 0.0 | 0.0 | 0.00 | 0.00 | 0.56 | 82 | 1004.2 |
| 20260507212447 | 46 | 45 | 4.0 | 4.0 | 0.00 | 0.00 | 0.56 | 82 | 1004.2 |
| 20260507212147 | 46 | 112 | 2.0 | 2.0 | 0.00 | 0.00 | 0.56 | 82 | 1004.2 |
| 20260507211847 | 46 | 112 | 1.0 | 1.0 | 0.00 | 0.00 | 0.56 | 82 | 1004.2 |
| 20260507211247 | 46 | 90 | 0.0 | 0.0 | 0.00 | 0.00 | 0.56 | 82 | 1004.2 |
| 20260507210948 | 46 | 337 | 0.0 | 0.0 | 0.00 | 0.00 | 0.56 | 82 | 1004.2 |
| 20260507210647 | 46 | 90 | 2.0 | 2.0 | 0.00 | 0.00 | 0.56 | 82 | 1004.2 |
| 20260507210348 | 46 | 90 | 4.0 | 4.0 | 0.00 | 0.00 | 0.56 | 81 | 1004.2 |
| 20260507210047 | 46 | 90 | 1.0 | 1.0 | 0.00 | 0.00 | 0.56 | 82 | 1004.2 |
| 20260507205750 | 46 | 135 | 0.0 | 0.0 | 0.00 | 0.00 | 0.56 | 81 | 1004.2 |
| 20260507205147 | 46 | 90 | 1.0 | 1.0 | 0.00 | 0.00 | 0.56 | 82 | 1004.2 |
| 20260507204247 | 46 | 90 | 0.0 | 0.0 | 0.00 | 0.00 | 0.56 | 81 | 1004.2 |
| 20260507203947 | 46 | 67 | 0.0 | 0.0 | 0.00 | 0.00 | 0.56 | 81 | 1004.0 |
| 20260507203647 | 46 | 112 | 1.0 | 1.0 | 0.00 | 0.00 | 0.56 | 81 | 1004.2 |
| 20260507203350 | 46 | 112 | 1.0 | 1.0 | 0.00 | 0.00 | 0.56 | 81 | 1004.0 |
| 20260507203048 | 46 | 135 | 0.0 | 0.0 | 0.00 | 0.00 | 0.56 | 81 | 1004.0 |
| 20260507202748 | 46 | 157 | 0.0 | 0.0 | 0.00 | 0.00 | 0.56 | 82 | 1004.0 |
| 20260507202448 | 46 | 337 | 0.0 | 0.0 | 0.00 | 0.00 | 0.56 | 81 | 1004.0 |
| 20260507202148 | 46 | 90 | 3.0 | 3.0 | 0.00 | 0.00 | 0.56 | 81 | 1004.0 |
| 20260507201547 | 46 | 337 | 0.0 | 0.0 | 0.00 | 0.00 | 0.56 | 81 | 1004.0 |
| 20260507201247 | 46 | 337 | 0.0 | 0.0 | 0.00 | 0.00 | 0.56 | 81 | 1004.0 |
| 20260507200948 | 46 | 90 | 1.0 | 1.0 | 0.00 | 0.00 | 0.56 | 81 | 1004.0 |
| 20260507200647 | 46 | 90 | 4.0 | 4.0 | 0.00 | 0.00 | 0.56 | 81 | 1003.8 |
| 20260507200348 | 46 | 90 | 0.0 | 0.0 | 0.00 | 0.00 | 0.56 | 81 | 1003.8 |
| 20260507200050 | 46 | 90 | 3.0 | 4.0 | 0.00 | 0.00 | 0.56 | 81 | 1003.8 |
| 20260507195748 | 46 | 90 | 1.0 | 1.0 | 0.00 | 0.00 | 0.56 | 81 | 1003.8 |
| 20260507195447 | 46 | 135 | 1.0 | 1.0 | 0.00 | 0.00 | 0.56 | 81 | 1003.8 |
| 20260507195147 | 47 | 90 | 1.0 | 1.0 | 0.00 | 0.00 | 0.56 | 81 | 1003.8 |
| 20260507194848 | 47 | 90 | 0.0 | 0.0 | 0.00 | 0.00 | 0.56 | 81 | 1003.8 |
| 20260507194248 | 47 | 202 | 0.0 | 0.0 | 0.00 | 0.00 | 0.56 | 81 | 1003.5 |
| 20260507193947 | 47 | 292 | 0.0 | 0.0 | 0.00 | 0.00 | 0.56 | 81 | 1003.5 |
| 20260507193648 | 47 | 337 | 0.0 | 0.0 | 0.00 | 0.00 | 0.56 | 81 | 1003.5 |
| 20260507193348 | 47 | 225 | 0.0 | 0.0 | 0.00 | 0.00 | 0.56 | 81 | 1003.5 |
| 20260507193050 | 47 | 337 | 2.0 | 2.0 | 0.00 | 0.00 | 0.56 | 82 | 1003.5 |
| 20260507192747 | 47 | 337 | 2.0 | 2.0 | 0.00 | 0.00 | 0.56 | 81 | 1003.3 |
| 20260507192447 | 47 | 180 | 1.0 | 1.0 | 0.00 | 0.00 | 0.56 | 81 | 1003.3 |
| 20260507192147 | 47 | 135 | 1.0 | 1.0 | 0.00 | 0.00 | 0.56 | 81 | 1003.3 |
| 20260507191848 | 47 | 337 | 1.0 | 2.0 | 0.00 | 0.00 | 0.56 | 81 | 1003.3 |
| 20260507191550 | 47 | 180 | 1.0 | 1.0 | 0.00 | 0.00 | 0.56 | 80 | 1003.3 |
| 20260507191247 | 47 | 157 | 0.0 | 0.0 | 0.00 | 0.00 | 0.56 | 81 | 1003.3 |
| 20260507190948 | 47 | 135 | 0.0 | 0.0 | 0.00 | 0.00 | 0.56 | 80 | 1003.3 |
| 20260507190647 | 47 | 135 | 2.0 | 2.0 | 0.00 | 0.00 | 0.56 | 80 | 1003.0 |
| 20260507190348 | 47 | 135 | 1.0 | 1.0 | 0.00 | 0.00 | 0.56 | 80 | 1003.3 |
| 20260507190047 | 47 | 112 | 0.0 | 0.0 | 0.00 | 0.00 | 0.56 | 80 | 1003.3 |
| 20260507185750 | 47 | 0 | 0.0 | 0.0 | 0.00 | 0.00 | 0.56 | 80 | 1003.0 |
| 20260507185447 | 47 | 112 | 1.0 | 1.0 | 0.00 | 0.00 | 0.56 | 80 | 1003.0 |
| 20260507185148 | 47 | 0 | 3.0 | 3.0 | 0.00 | 0.00 | 0.56 | 80 | 1002.8 |
| 20260507184847 | 47 | 45 | 3.0 | 3.0 | 0.00 | 0.00 | 0.56 | 80 | 1002.8 |
| 20260507184548 | 47 | 225 | 0.0 | 0.0 | 0.00 | 0.00 | 0.56 | 80 | 1002.8 |
| 20260507184247 | 47 | 90 | 0.0 | 0.0 | 0.00 | 0.00 | 0.56 | 80 | 1002.8 |
| 20260507183647 | 47 | 315 | 0.0 | 0.0 | 0.00 | 0.00 | 0.56 | 80 | 1002.8 |
| 20260507183347 | 47 | 67 | 0.0 | 0.0 | 0.00 | 0.00 | 0.56 | 79 | 1002.8 |
| 20260507183048 | 47 | 0 | 6.0 | 6.0 | 0.00 | 0.00 | 0.56 | 79 | 1002.8 |
| 20260507182748 | 48 | 90 | 1.0 | 1.0 | 0.00 | 0.00 | 0.56 | 80 | 1002.8 |
| 20260507182448 | 48 | 112 | 0.0 | 0.0 | 0.00 | 0.00 | 0.56 | 79 | 1002.8 |
| 20260507181848 | 48 | 112 | 0.0 | 0.0 | 0.00 | 0.00 | 0.56 | 79 | 1002.8 |
| 20260507181547 | 48 | 67 | 3.0 | 3.0 | 0.00 | 0.00 | 0.56 | 80 | 1002.8 |
| 20260507181247 | 48 | 22 | 0.0 | 0.0 | 0.00 | 0.00 | 0.56 | 79 | 1002.8 |
| 20260507180648 | 48 | 22 | 0.0 | 0.0 | 0.00 | 0.00 | 0.56 | 80 | 1002.8 |
| 20260507180047 | 48 | 90 | 2.0 | 2.0 | 0.00 | 0.00 | 0.56 | 80 | 1002.5 |
| 20260507175747 | 49 | 292 | 0.0 | 0.0 | 0.00 | 0.00 | 0.56 | 80 | 1002.5 |
| 20260507175448 | 49 | 337 | 0.0 | 0.0 | 0.00 | 0.00 | 0.56 | 80 | 1002.5 |
| 20260507175148 | 49 | 90 | 3.0 | 3.0 | 0.00 | 0.00 | 0.56 | 80 | 1002.5 |
| 20260507174848 | 49 | 337 | 1.0 | 1.0 | 0.00 | 0.00 | 0.56 | 80 | 1002.5 |
| 20260507174547 | 49 | 225 | 1.0 | 2.0 | 0.00 | 0.00 | 0.56 | 80 | 1002.5 |
| 20260507174248 | 49 | 45 | 1.0 | 1.0 | 0.00 | 0.00 | 0.56 | 80 | 1002.5 |
| 20260507173948 | 49 | 337 | 2.0 | 2.0 | 0.00 | 0.00 | 0.56 | 80 | 1002.3 |
| 20260507173647 | 49 | 90 | 1.0 | 1.0 | 0.00 | 0.00 | 0.56 | 80 | 1002.3 |
| 20260507173048 | 50 | 22 | 2.0 | 2.0 | 0.00 | 0.00 | 0.56 | 81 | 1002.3 |
| 20260507172748 | 50 | 180 | 0.0 | 0.0 | 0.00 | 0.00 | 0.56 | 81 | 1002.0 |
| 20260507172448 | 50 | 112 | 2.0 | 2.0 | 0.00 | 0.00 | 0.56 | 81 | 1002.0 |
| 20260507172147 | 50 | 90 | 2.0 | 2.0 | 0.00 | 0.00 | 0.56 | 80 | 1002.0 |
| 20260507171848 | 50 | 90 | 4.0 | 4.0 | 0.00 | 0.00 | 0.56 | 80 | 1002.0 |
| 20260507171550 | 50 | 90 | 3.0 | 3.0 | 0.00 | 0.00 | 0.56 | 80 | 1002.0 |
| 20260507171247 | 50 | 112 | 0.0 | 0.0 | 0.00 | 0.00 | 0.56 | 80 | 1002.0 |
| 20260507170947 | 50 | 337 | 1.0 | 1.0 | 0.00 | 0.00 | 0.56 | 80 | 1002.0 |
| 20260507170648 | 50 | 112 | 0.0 | 0.0 | 0.00 | 0.00 | 0.56 | 80 | 1001.8 |
| 20260507170347 | 50 | 90 | 0.0 | 0.0 | 0.00 | 0.00 | 0.56 | 80 | 1001.8 |
| 20260507170048 | 50 | 90 | 1.0 | 1.0 | 0.00 | 0.00 | 0.56 | 80 | 1001.8 |
| 20260507165447 | 50 | 0 | 0.0 | 0.0 | 0.00 | 0.00 | 0.56 | 81 | 1001.8 |
| 20260507165147 | 50 | 0 | 0.0 | 0.0 | 0.00 | 0.00 | 0.56 | 81 | 1001.8 |
| 20260507164848 | 50 | 0 | 1.0 | 1.0 | 0.00 | 0.00 | 0.56 | 80 | 1001.8 |
| 20260507164547 | 50 | 22 | 5.0 | 5.0 | 0.00 | 0.00 | 0.56 | 80 | 1001.8 |
| 20260507164248 | 50 | 0 | 4.0 | 4.0 | 0.00 | 0.00 | 0.53 | 80 | 1001.8 |
| 20260507163947 | 50 | 0 | 0.0 | 0.0 | 0.00 | 0.00 | 0.53 | 81 | 1001.8 |
| 20260507163647 | 51 | 0 | 0.0 | 0.0 | 0.00 | 0.00 | 0.52 | 81 | 1001.8 |
| 20260507163348 | 50 | 67 | 0.0 | 0.0 | 0.00 | 0.00 | 0.52 | 81 | 1001.8 |
| 20260507163048 | 51 | 67 | 1.0 | 1.0 | 0.00 | 0.00 | 0.52 | 81 | 1001.8 |
| 20260507162447 | 51 | 112 | 2.0 | 2.0 | 0.00 | 0.00 | 0.52 | 80 | 1001.8 |
| 20260507162147 | 51 | 90 | 2.0 | 2.0 | 0.00 | 0.00 | 0.52 | 80 | 1001.8 |
| 20260507161848 | 51 | 90 | 2.0 | 2.0 | 0.00 | 0.00 | 0.52 | 79 | 1001.5 |
| 20260507161547 | 51 | 45 | 1.0 | 1.0 | 0.00 | 0.00 | 0.52 | 78 | 1001.5 |
| 20260507161248 | 51 | 67 | 2.0 | 2.0 | 0.00 | 0.00 | 0.52 | 78 | 1001.5 |
| 20260507160648 | 51 | 67 | 0.0 | 0.0 | 0.00 | 0.00 | 0.50 | 78 | 1001.8 |
| 20260507160348 | 50 | 45 | 0.0 | 0.0 | 0.00 | 0.00 | 0.50 | 78 | 1001.5 |
| 20260507160048 | 51 | 315 | 3.0 | 3.0 | 0.00 | 0.00 | 0.50 | 78 | 1001.5 |
| 20260507155746 | 51 | 337 | 2.0 | 2.0 | 0.00 | 0.00 | 0.50 | 79 | 1001.5 |
| 20260507155448 | 52 | 337 | 1.0 | 1.0 | 0.00 | 0.00 | 0.50 | 79 | 1001.5 |
| 20260507155150 | 53 | 270 | 2.0 | 2.0 | 0.00 | 0.00 | 0.50 | 79 | 1001.3 |
| 20260507154848 | 53 | 270 | 2.0 | 2.0 | 0.00 | 0.00 | 0.50 | 79 | 1001.3 |
| 20260507154548 | 53 | 337 | 0.0 | 0.0 | 0.00 | 0.00 | 0.50 | 78 | 1001.3 |
| 20260507154247 | 53 | 270 | 0.0 | 0.0 | 0.00 | 0.00 | 0.50 | 78 | 1001.3 |
| 20260507153647 | 53 | 225 | 4.0 | 4.0 | 0.00 | 0.00 | 0.50 | 79 | 1001.3 |
| 20260507153048 | 54 | 270 | 1.0 | 2.0 | 0.00 | 0.00 | 0.50 | 79 | 1001.3 |
| 20260507152747 | 54 | 247 | 2.0 | 2.0 | 0.00 | 0.00 | 0.50 | 79 | 1001.3 |
| 20260507152447 | 53 | 337 | 1.0 | 1.0 | 0.00 | 0.00 | 0.50 | 79 | 1001.3 |
| 20260507152147 | 54 | 337 | 1.0 | 1.0 | 0.00 | 0.00 | 0.50 | 79 | 1001.3 |
| 20260507151548 | 54 | 225 | 2.0 | 2.0 | 0.00 | 0.00 | 0.50 | 79 | 1001.3 |
| 20260507151247 | 54 | 337 | 5.0 | 6.0 | 0.00 | 0.00 | 0.50 | 79 | 1001.3 |
| 20260507150948 | 54 | 270 | 2.0 | 2.0 | 0.00 | 0.00 | 0.50 | 79 | 1001.3 |
| 20260507150648 | 54 | 225 | 1.0 | 1.0 | 0.00 | 0.00 | 0.50 | 79 | 1001.3 |
| 20260507150350 | 54 | 225 | 3.0 | 3.0 | 0.00 | 0.00 | 0.50 | 79 | 1001.3 |
| 20260507150047 | 54 | 225 | 1.0 | 1.0 | 0.00 | 0.00 | 0.50 | 79 | 1001.3 |
| 20260507145748 | 54 | 225 | 2.0 | 2.0 | 0.00 | 0.00 | 0.50 | 79 | 1001.3 |
| 20260507145447 | 54 | 247 | 2.0 | 2.0 | 0.00 | 0.00 | 0.50 | 79 | 1001.3 |
| 20260507145147 | 54 | 225 | 2.0 | 2.0 | 0.00 | 0.00 | 0.50 | 78 | 1001.3 |
| 20260507144847 | 54 | 247 | 1.0 | 1.0 | 0.00 | 0.00 | 0.50 | 78 | 1001.3 |
| 20260507144548 | 54 | 247 | 3.0 | 4.0 | 0.00 | 0.00 | 0.50 | 78 | 1001.3 |
| 20260507144248 | 54 | 337 | 1.0 | 1.0 | 0.00 | 0.00 | 0.50 | 79 | 1001.0 |
| 20260507143948 | 53 | 180 | 3.0 | 3.0 | 0.00 | 0.00 | 0.50 | 79 | 1001.3 |
| 20260507143648 | 53 | 225 | 4.0 | 4.0 | 0.00 | 0.00 | 0.50 | 78 | 1001.0 |
| 20260507143350 | 53 | 337 | 4.0 | 4.0 | 0.00 | 0.00 | 0.50 | 78 | 1001.3 |
| 20260507143047 | 53 | 202 | 2.0 | 2.0 | 0.00 | 0.00 | 0.50 | 78 | 1001.0 |
| 20260507142747 | 53 | 337 | 4.0 | 4.0 | 0.00 | 0.00 | 0.50 | 78 | 1001.3 |
| 20260507142447 | 53 | 292 | 6.0 | 6.0 | 0.00 | 0.00 | 0.50 | 77 | 1001.0 |
| 20260507142148 | 53 | 292 | 5.0 | 5.0 | 0.00 | 0.00 | 0.50 | 77 | 1001.0 |
| 20260507141848 | 53 | 247 | 3.0 | 3.0 | 0.00 | 0.00 | 0.50 | 76 | 1001.0 |
| 20260507141247 | 54 | 315 | 3.0 | 3.0 | 0.00 | 0.00 | 0.50 | 75 | 1001.0 |
| 20260507140947 | 55 | 270 | 4.0 | 4.0 | 0.00 | 0.00 | 0.50 | 75 | 1001.0 |
| 20260507140647 | 55 | 337 | 3.0 | 3.0 | 0.00 | 0.00 | 0.50 | 77 | 1000.8 |
| 20260507140350 | 56 | 225 | 2.0 | 2.0 | 0.00 | 0.00 | 0.50 | 78 | 1000.8 |
| 20260507140048 | 55 | 225 | 1.0 | 1.0 | 0.00 | 0.00 | 0.50 | 77 | 1001.0 |
| 20260507135748 | 55 | 225 | 2.0 | 2.0 | 0.00 | 0.00 | 0.50 | 77 | 1001.0 |
| 20260507135447 | 55 | 270 | 2.0 | 2.0 | 0.00 | 0.00 | 0.50 | 77 | 1000.8 |
| 20260507135147 | 56 | 270 | 3.0 | 3.0 | 0.00 | 0.00 | 0.50 | 78 | 1000.8 |
| 20260507134847 | 55 | 270 | 6.0 | 6.0 | 0.00 | 0.00 | 0.50 | 78 | 1001.0 |
| 20260507134550 | 55 | 225 | 5.0 | 5.0 | 0.00 | 0.00 | 0.50 | 78 | 1001.0 |
| 20260507134248 | 54 | 337 | 8.0 | 8.0 | 0.00 | 0.00 | 0.50 | 79 | 1001.0 |
| 20260507133947 | 54 | 225 | 2.0 | 2.0 | 0.00 | 0.00 | 0.50 | 78 | 1000.8 |
| 20260507133648 | 54 | 202 | 7.0 | 7.0 | 0.00 | 0.00 | 0.50 | 77 | 1000.8 |
| 20260507133348 | 54 | 225 | 6.0 | 6.0 | 0.00 | 0.00 | 0.50 | 77 | 1000.8 |
| 20260507133048 | 54 | 270 | 5.0 | 5.0 | 0.00 | 0.00 | 0.50 | 77 | 1000.8 |
| 20260507132447 | 55 | 225 | 3.0 | 4.0 | 0.00 | 0.00 | 0.50 | 77 | 1000.8 |
| 20260507132147 | 55 | 270 | 6.0 | 6.0 | 0.00 | 0.00 | 0.50 | 77 | 1000.8 |
| 20260507131847 | 56 | 247 | 4.0 | 4.0 | 0.00 | 0.00 | 0.50 | 77 | 1000.8 |
| 20260507131548 | 56 | 225 | 3.0 | 3.0 | 0.00 | 0.00 | 0.50 | 77 | 1000.8 |
| 20260507131247 | 56 | 315 | 2.0 | 2.0 | 0.00 | 0.00 | 0.50 | 76 | 1000.8 |
| 20260507130947 | 56 | 315 | 3.0 | 3.0 | 0.00 | 0.00 | 0.50 | 76 | 1000.8 |
| 20260507130648 | 56 | 315 | 2.0 | 2.0 | 0.00 | 0.00 | 0.50 | 76 | 1000.8 |
| 20260507130347 | 56 | 270 | 5.0 | 5.0 | 0.00 | 0.00 | 0.50 | 77 | 1000.8 |
| 20260507130047 | 56 | 270 | 6.0 | 6.0 | 0.00 | 0.00 | 0.50 | 77 | 1000.5 |
| 20260507125747 | 55 | 270 | 7.0 | 7.0 | 0.00 | 0.00 | 0.50 | 77 | 1000.8 |
| 20260507125148 | 55 | 337 | 4.0 | 4.0 | 0.00 | 0.00 | 0.50 | 79 | 1000.5 |
| 20260507124847 | 55 | 292 | 4.0 | 4.0 | 0.00 | 0.00 | 0.50 | 79 | 1000.8 |
| 20260507124548 | 55 | 315 | 2.0 | 2.0 | 0.00 | 0.00 | 0.50 | 80 | 1000.5 |
| 20260507124247 | 54 | 337 | 4.0 | 4.0 | 0.00 | 0.00 | 0.50 | 80 | 1000.5 |
| 20260507123948 | 54 | 315 | 3.0 | 3.0 | 0.00 | 0.00 | 0.50 | 79 | 1000.8 |
| 20260507123650 | 53 | 270 | 4.0 | 4.0 | 0.00 | 0.00 | 0.50 | 80 | 1000.5 |
| 20260507123348 | 54 | 337 | 3.0 | 3.0 | 0.00 | 0.00 | 0.50 | 81 | 1000.5 |
| 20260507123047 | 53 | 292 | 2.0 | 2.0 | 0.00 | 0.00 | 0.50 | 81 | 1000.5 |
| 20260507122747 | 53 | 315 | 7.0 | 7.0 | 0.00 | 0.00 | 0.50 | 81 | 1000.5 |
| 20260507122448 | 53 | 292 | 3.0 | 3.0 | 0.00 | 0.00 | 0.50 | 82 | 1000.5 |
| 20260507122147 | 52 | 337 | 3.0 | 3.0 | 0.00 | 0.00 | 0.50 | 81 | 1000.3 |
| 20260507121848 | 52 | 315 | 3.0 | 3.0 | 0.00 | 0.00 | 0.50 | 82 | 1000.3 |
| 20260507121547 | 52 | 292 | 4.0 | 4.0 | 0.00 | 0.00 | 0.50 | 82 | 1000.3 |
| 20260507121247 | 52 | 247 | 5.0 | 5.0 | 0.00 | 0.00 | 0.50 | 82 | 1000.3 |
| 20260507120948 | 52 | 270 | 4.0 | 4.0 | 0.00 | 0.00 | 0.50 | 82 | 1000.3 |
| 20260507120648 | 52 | 292 | 6.0 | 6.0 | 0.00 | 0.00 | 0.50 | 82 | 1000.3 |
| 20260507120047 | 51 | 270 | 4.0 | 4.0 | 0.00 | 0.00 | 0.50 | 82 | 1000.3 |
| 20260507115748 | 51 | 270 | 5.0 | 5.0 | 0.00 | 0.00 | 0.50 | 82 | 1000.3 |
| 20260507115447 | 51 | 270 | 2.0 | 2.0 | 0.00 | 0.00 | 0.50 | 82 | 1000.3 |
| 20260507115147 | 51 | 292 | 4.0 | 4.0 | 0.00 | 0.00 | 0.50 | 82 | 1000.3 |
| 20260507114548 | 50 | 270 | 2.0 | 2.0 | 0.00 | 0.00 | 0.50 | 81 | 1000.3 |
| 20260507114247 | 50 | 247 | 5.0 | 5.0 | 0.00 | 0.00 | 0.50 | 82 | 1000.3 |
| 20260507113947 | 51 | 202 | 2.0 | 2.0 | 0.00 | 0.00 | 0.50 | 81 | 1000.3 |
| 20260507113647 | 51 | 247 | 4.0 | 4.0 | 0.00 | 0.00 | 0.50 | 81 | 1000.3 |
| 20260507113347 | 51 | 337 | 8.0 | 8.0 | 0.00 | 0.00 | 0.50 | 81 | 1000.3 |
| 20260507112747 | 51 | 292 | 3.0 | 4.0 | 0.00 | 0.00 | 0.50 | 80 | 1000.0 |
| 20260507112447 | 51 | 270 | 5.0 | 5.0 | 0.00 | 0.00 | 0.50 | 80 | 1000.0 |
| 20260507112147 | 51 | 247 | 6.0 | 6.0 | 0.00 | 0.00 | 0.50 | 79 | 999.8 |
| 20260507111848 | 51 | 337 | 6.0 | 6.0 | 0.00 | 0.00 | 0.50 | 80 | 999.8 |
| 20260507111247 | 52 | 270 | 4.0 | 4.0 | 0.00 | 0.00 | 0.50 | 80 | 999.8 |
| 20260507110947 | 52 | 270 | 2.0 | 2.0 | 0.00 | 0.00 | 0.50 | 79 | 999.8 |
| 20260507110648 | 51 | 270 | 4.0 | 4.0 | 0.00 | 0.00 | 0.50 | 79 | 999.8 |
| 20260507110347 | 52 | 247 | 4.0 | 4.0 | 0.00 | 0.00 | 0.50 | 79 | 999.8 |
| 20260507110047 | 52 | 270 | 1.0 | 1.0 | 0.00 | 0.00 | 0.50 | 79 | 999.8 |
| 20260507105750 | 52 | 270 | 3.0 | 3.0 | 0.00 | 0.00 | 0.50 | 79 | 999.8 |
| 20260507105448 | 52 | 225 | 7.0 | 7.0 | 0.00 | 0.00 | 0.50 | 79 | 999.8 |
| 20260507105148 | 52 | 225 | 5.0 | 5.0 | 0.00 | 0.00 | 0.50 | 79 | 999.8 |
| 20260507104848 | 52 | 225 | 3.0 | 4.0 | 0.00 | 0.00 | 0.50 | 79 | 999.8 |
| 20260507104548 | 52 | 270 | 5.0 | 5.0 | 0.00 | 0.00 | 0.50 | 80 | 999.8 |
| 20260507104248 | 53 | 337 | 1.0 | 1.0 | 0.00 | 0.00 | 0.50 | 79 | 999.8 |
| 20260507103947 | 53 | 270 | 4.0 | 4.0 | 0.00 | 0.00 | 0.50 | 79 | 999.8 |
| 20260507103347 | 54 | 337 | 7.0 | 7.0 | 0.00 | 0.00 | 0.50 | 80 | 999.5 |
| 20260507103047 | 53 | 247 | 4.0 | 4.0 | 0.00 | 0.00 | 0.50 | 80 | 999.5 |
| 20260507102747 | 53 | 337 | 5.0 | 5.0 | 0.00 | 0.00 | 0.50 | 79 | 999.5 |
| 20260507102448 | 53 | 225 | 4.0 | 4.0 | 0.00 | 0.00 | 0.50 | 80 | 999.5 |
| 20260507102147 | 53 | 270 | 3.0 | 3.0 | 0.00 | 0.00 | 0.50 | 80 | 999.5 |
| 20260507101548 | 53 | 225 | 4.0 | 4.0 | 0.00 | 0.00 | 0.50 | 81 | 999.3 |
| 20260507101248 | 53 | 270 | 3.0 | 3.0 | 0.00 | 0.00 | 0.50 | 81 | 999.3 |
| 20260507100948 | 54 | 337 | 2.0 | 2.0 | 0.00 | 0.00 | 0.50 | 82 | 999.3 |
| 20260507100648 | 53 | 270 | 4.0 | 4.0 | 0.00 | 0.00 | 0.50 | 82 | 999.3 |
| 20260507100347 | 53 | 247 | 3.0 | 3.0 | 0.00 | 0.00 | 0.50 | 82 | 999.3 |
| 20260507100050 | 53 | 247 | 2.0 | 2.0 | 0.00 | 0.00 | 0.50 | 82 | 999.3 |
| 20260507095747 | 52 | 270 | 2.0 | 2.0 | 0.00 | 0.00 | 0.50 | 81 | 999.3 |
| 20260507095448 | 52 | 270 | 3.0 | 3.0 | 0.00 | 0.00 | 0.50 | 81 | 999.3 |
| 20260507095148 | 51 | 270 | 4.0 | 4.0 | 0.00 | 0.00 | 0.50 | 81 | 999.3 |
| 20260507094848 | 51 | 270 | 1.0 | 1.0 | 0.00 | 0.00 | 0.50 | 81 | 999.3 |
| 20260507094247 | 52 | 225 | 2.0 | 2.0 | 0.00 | 0.00 | 0.50 | 81 | 999.1 |
| 20260507093948 | 52 | 225 | 2.0 | 2.0 | 0.00 | 0.00 | 0.50 | 81 | 999.1 |
| 20260507093648 | 52 | 225 | 4.0 | 4.0 | 0.00 | 0.00 | 0.50 | 81 | 999.1 |
| 20260507093348 | 52 | 270 | 2.0 | 2.0 | 0.00 | 0.00 | 0.50 | 81 | 999.1 |
| 20260507093047 | 53 | 225 | 2.0 | 2.0 | 0.00 | 0.00 | 0.50 | 81 | 999.1 |
| 20260507092750 | 53 | 270 | 4.0 | 4.0 | 0.00 | 0.00 | 0.50 | 81 | 998.8 |
| 20260507092447 | 53 | 225 | 3.0 | 3.0 | 0.00 | 0.00 | 0.50 | 81 | 998.8 |
| 20260507092148 | 53 | 270 | 4.0 | 4.0 | 0.00 | 0.00 | 0.50 | 81 | 998.8 |
| 20260507091847 | 52 | 337 | 5.0 | 6.0 | 0.00 | 0.00 | 0.50 | 82 | 998.8 |
| 20260507091548 | 52 | 225 | 6.0 | 6.0 | 0.00 | 0.00 | 0.50 | 81 | 998.8 |
| 20260507091248 | 53 | 247 | 2.0 | 2.0 | 0.00 | 0.00 | 0.50 | 82 | 998.8 |
| 20260507090948 | 52 | 270 | 3.0 | 3.0 | 0.00 | 0.00 | 0.50 | 81 | 998.8 |
| 20260507090647 | 53 | 270 | 7.0 | 7.0 | 0.00 | 0.00 | 0.50 | 82 | 998.8 |
| 20260507090347 | 52 | 270 | 3.0 | 3.0 | 0.00 | 0.00 | 0.50 | 81 | 998.8 |
| 20260507090048 | 52 | 270 | 3.0 | 3.0 | 0.00 | 0.00 | 0.50 | 81 | 998.6 |
| 20260507085747 | 52 | 270 | 1.0 | 2.0 | 0.00 | 0.00 | 0.50 | 82 | 998.6 |
| 20260507085450 | 53 | 337 | 4.0 | 4.0 | 0.00 | 0.00 | 0.50 | 82 | 998.6 |
| 20260507085147 | 52 | 337 | 3.0 | 3.0 | 0.00 | 0.00 | 0.50 | 82 | 998.3 |
| 20260507084847 | 52 | 225 | 4.0 | 4.0 | 0.00 | 0.00 | 0.50 | 82 | 998.3 |
| 20260507084548 | 52 | 247 | 1.0 | 1.0 | 0.00 | 0.00 | 0.50 | 82 | 998.3 |
| 20260507084248 | 52 | 337 | 2.0 | 2.0 | 0.00 | 0.00 | 0.50 | 83 | 998.3 |
| 20260507083948 | 52 | 225 | 1.0 | 1.0 | 0.00 | 0.00 | 0.50 | 82 | 998.3 |
| 20260507083650 | 52 | 337 | 1.0 | 2.0 | 0.00 | 0.00 | 0.50 | 82 | 998.3 |
| 20260507083348 | 52 | 247 | 3.0 | 3.0 | 0.00 | 0.00 | 0.50 | 82 | 998.3 |
| 20260507083048 | 52 | 270 | 4.0 | 4.0 | 0.00 | 0.00 | 0.50 | 82 | 998.3 |
| 20260507082748 | 52 | 270 | 4.0 | 4.0 | 0.00 | 0.00 | 0.50 | 82 | 998.3 |
| 20260507082447 | 52 | 247 | 2.0 | 2.0 | 0.00 | 0.00 | 0.50 | 83 | 998.3 |
| 20260507082148 | 52 | 270 | 3.0 | 3.0 | 0.00 | 0.00 | 0.50 | 83 | 998.1 |
| 20260507081850 | 52 | 270 | 2.0 | 2.0 | 0.00 | 0.00 | 0.50 | 83 | 998.1 |
| 20260507081547 | 52 | 270 | 4.0 | 4.0 | 0.00 | 0.00 | 0.50 | 83 | 998.1 |
| 20260507081248 | 52 | 337 | 4.0 | 4.0 | 0.00 | 0.00 | 0.50 | 83 | 998.1 |
| 20260507080950 | 52 | 270 | 3.0 | 3.0 | 0.00 | 0.00 | 0.50 | 83 | 997.8 |
| 20260507080648 | 52 | 270 | 3.0 | 3.0 | 0.00 | 0.00 | 0.50 | 83 | 997.8 |
| 20260507080348 | 52 | 270 | 2.0 | 2.0 | 0.00 | 0.00 | 0.50 | 83 | 997.8 |
| 20260507080050 | 52 | 247 | 3.0 | 3.0 | 0.00 | 0.00 | 0.50 | 83 | 997.8 |
| 20260507075747 | 52 | 270 | 2.0 | 2.0 | 0.00 | 0.00 | 0.50 | 83 | 997.8 |
| 20260507075447 | 51 | 270 | 5.0 | 5.0 | 0.00 | 0.00 | 0.50 | 83 | 997.8 |
| 20260507075146 | 51 | 292 | 2.0 | 2.0 | 0.00 | 0.00 | 0.50 | 83 | 997.8 |
| 20260507074848 | 52 | 270 | 4.0 | 4.0 | 0.00 | 0.00 | 0.50 | 84 | 997.8 |
| 20260507074550 | 51 | 315 | 2.0 | 2.0 | 0.00 | 0.00 | 0.50 | 83 | 997.6 |
| 20260507074247 | 51 | 270 | 2.0 | 2.0 | 0.00 | 0.00 | 0.50 | 84 | 997.8 |
| 20260507073948 | 51 | 315 | 1.0 | 1.0 | 0.00 | 0.00 | 0.50 | 84 | 997.6 |
| 20260507073648 | 51 | 247 | 3.0 | 4.0 | 0.00 | 0.00 | 0.50 | 84 | 997.8 |
| 20260507073347 | 51 | 270 | 0.0 | 0.0 | 0.00 | 0.00 | 0.50 | 84 | 997.6 |
| 20260507073048 | 51 | 270 | 2.0 | 2.0 | 0.00 | 0.00 | 0.50 | 84 | 997.6 |
| 20260507072750 | 51 | 270 | 1.0 | 1.0 | 0.00 | 0.00 | 0.50 | 84 | 997.6 |
| 20260507072448 | 51 | 270 | 2.0 | 2.0 | 0.00 | 0.00 | 0.50 | 84 | 997.6 |
| 20260507072148 | 51 | 247 | 1.0 | 1.0 | 0.00 | 0.00 | 0.50 | 84 | 997.3 |
| 20260507071848 | 51 | 337 | 1.0 | 2.0 | 0.00 | 0.00 | 0.50 | 84 | 997.3 |
| 20260507071547 | 51 | 270 | 4.0 | 4.0 | 0.00 | 0.00 | 0.48 | 84 | 997.3 |
| 20260507071247 | 51 | 315 | 2.0 | 2.0 | 0.00 | 0.00 | 0.48 | 85 | 997.3 |
| 20260507070648 | 51 | 337 | 1.0 | 2.0 | 0.00 | 0.00 | 0.48 | 85 | 997.3 |
| 20260507070348 | 51 | 270 | 2.0 | 2.0 | 0.00 | 0.00 | 0.48 | 85 | 997.3 |
| 20260507070047 | 51 | 270 | 1.0 | 1.0 | 0.00 | 0.00 | 0.48 | 85 | 997.3 |
| 20260507065747 | 51 | 337 | 2.0 | 2.0 | 0.00 | 0.00 | 0.48 | 85 | 997.3 |
| 20260507065447 | 51 | 337 | 0.0 | 0.0 | 0.00 | 0.00 | 0.48 | 85 | 997.1 |
| 20260507065148 | 51 | 270 | 1.0 | 2.0 | 0.00 | 0.00 | 0.48 | 85 | 997.1 |
| 20260507064848 | 51 | 270 | 1.0 | 2.0 | 0.00 | 0.00 | 0.48 | 84 | 997.1 |
| 20260507064547 | 51 | 270 | 1.0 | 1.0 | 0.00 | 0.00 | 0.48 | 85 | 997.3 |
| 20260507064248 | 51 | 247 | 1.0 | 1.0 | 0.00 | 0.00 | 0.48 | 85 | 997.1 |
| 20260507063947 | 51 | 270 | 1.0 | 2.0 | 0.00 | 0.00 | 0.48 | 84 | 996.8 |
| 20260507063647 | 51 | 315 | 2.0 | 2.0 | 0.00 | 0.00 | 0.48 | 84 | 996.8 |
| 20260507063350 | 51 | 270 | 3.0 | 3.0 | 0.00 | 0.00 | 0.48 | 85 | 996.8 |
| 20260507063048 | 51 | 315 | 1.0 | 2.0 | 0.00 | 0.00 | 0.48 | 84 | 996.8 |
| 20260507062747 | 51 | 315 | 2.0 | 2.0 | 0.00 | 0.00 | 0.48 | 84 | 996.8 |
| 20260507062447 | 51 | 225 | 1.0 | 1.0 | 0.00 | 0.00 | 0.48 | 85 | 996.8 |
| 20260507062148 | 51 | 292 | 1.0 | 2.0 | 0.00 | 0.00 | 0.48 | 85 | 996.8 |
| 20260507061848 | 51 | 337 | 3.0 | 3.0 | 0.00 | 0.00 | 0.48 | 85 | 996.8 |
| 20260507061248 | 51 | 337 | 0.0 | 0.0 | 0.00 | 0.00 | 0.48 | 85 | 996.8 |
| 20260507060948 | 51 | 270 | 0.0 | 0.0 | 0.00 | 0.00 | 0.48 | 85 | 996.8 |
| 20260507060648 | 51 | 292 | 1.0 | 1.0 | 0.00 | 0.00 | 0.48 | 85 | 996.6 |
| 20260507060348 | 50 | 270 | 1.0 | 1.0 | 0.00 | 0.00 | 0.48 | 85 | 996.6 |
| 20260507060048 | 51 | 270 | 2.0 | 2.0 | 0.00 | 0.00 | 0.48 | 85 | 996.6 |
| 20260507055748 | 51 | 247 | 1.0 | 1.0 | 0.00 | 0.00 | 0.48 | 85 | 996.3 |
| 20260507055447 | 51 | 225 | 2.0 | 2.0 | 0.00 | 0.00 | 0.48 | 85 | 996.3 |
| 20260507055147 | 51 | 270 | 0.0 | 0.0 | 0.00 | 0.00 | 0.48 | 85 | 996.3 |
| 20260507054848 | 51 | 270 | 3.0 | 3.0 | 0.00 | 0.00 | 0.48 | 84 | 996.3 |
| 20260507054547 | 51 | 292 | 3.0 | 3.0 | 0.00 | 0.00 | 0.48 | 85 | 996.3 |
| 20260507053948 | 51 | 292 | 4.0 | 4.0 | 0.00 | 0.00 | 0.45 | 85 | 996.3 |
| 20260507053648 | 51 | 292 | 3.0 | 3.0 | 0.00 | 0.00 | 0.45 | 85 | 996.1 |
| 20260507053348 | 51 | 337 | 0.0 | 0.0 | 0.00 | 0.00 | 0.45 | 85 | 996.3 |
| 20260507053047 | 51 | 315 | 2.0 | 2.0 | 0.00 | 0.00 | 0.45 | 85 | 996.3 |
| 20260507052447 | 51 | 270 | 1.0 | 1.0 | 0.00 | 0.00 | 0.45 | 86 | 995.8 |
| 20260507052148 | 51 | 270 | 3.0 | 3.0 | 0.00 | 0.00 | 0.45 | 86 | 996.1 |
| 20260507051848 | 51 | 270 | 4.0 | 4.0 | 0.00 | 0.00 | 0.45 | 86 | 995.8 |
| 20260507051548 | 51 | 270 | 2.0 | 2.0 | 0.00 | 0.00 | 0.45 | 86 | 996.1 |
| 20260507051247 | 51 | 270 | 2.0 | 2.0 | 0.00 | 0.00 | 0.45 | 85 | 995.8 |
| 20260507050647 | 50 | 180 | 1.0 | 1.0 | 0.00 | 0.00 | 0.45 | 86 | 995.8 |
| 20260507050347 | 51 | 270 | 3.0 | 4.0 | 0.00 | 0.00 | 0.45 | 86 | 995.8 |
| 20260507050048 | 51 | 270 | 2.0 | 2.0 | 0.00 | 0.00 | 0.45 | 86 | 995.8 |
| 20260507045748 | 51 | 270 | 2.0 | 2.0 | 0.00 | 0.00 | 0.45 | 86 | 995.8 |
| 20260507045448 | 51 | 270 | 2.0 | 2.0 | 0.00 | 0.00 | 0.45 | 86 | 995.6 |
| 20260507045147 | 50 | 270 | 1.0 | 2.0 | 0.00 | 0.00 | 0.45 | 86 | 995.8 |
| 20260507044848 | 50 | 225 | 2.0 | 2.0 | 0.00 | 0.00 | 0.45 | 86 | 995.8 |
| 20260507044547 | 51 | 315 | 2.0 | 2.0 | 0.00 | 0.00 | 0.45 | 86 | 995.6 |
| 20260507044247 | 51 | 270 | 1.0 | 1.0 | 0.00 | 0.00 | 0.45 | 86 | 995.6 |
| 20260507043948 | 51 | 270 | 3.0 | 3.0 | 0.00 | 0.00 | 0.45 | 86 | 995.3 |
| 20260507043648 | 51 | 270 | 2.0 | 2.0 | 0.00 | 0.00 | 0.45 | 86 | 995.3 |
| 20260507043350 | 51 | 270 | 3.0 | 3.0 | 0.00 | 0.00 | 0.45 | 87 | 995.3 |
| 20260507043047 | 51 | 270 | 5.0 | 5.0 | 0.00 | 0.00 | 0.45 | 86 | 995.3 |
| 20260507042747 | 51 | 270 | 3.0 | 3.0 | 0.00 | 0.00 | 0.45 | 87 | 995.3 |
| 20260507042447 | 51 | 270 | 3.0 | 3.0 | 0.00 | 0.00 | 0.45 | 87 | 995.1 |
| 20260507042148 | 51 | 270 | 4.0 | 4.0 | 0.00 | 0.00 | 0.45 | 86 | 995.1 |
| 20260507041848 | 51 | 292 | 1.0 | 2.0 | 0.00 | 0.00 | 0.44 | 87 | 995.1 |
| 20260507041248 | 51 | 270 | 5.0 | 5.0 | 0.00 | 0.00 | 0.44 | 87 | 995.1 |
| 20260507040948 | 51 | 337 | 6.0 | 6.0 | 0.00 | 0.00 | 0.44 | 87 | 995.1 |
| 20260507040647 | 51 | 247 | 3.0 | 3.0 | 0.00 | 0.00 | 0.42 | 87 | 995.1 |
| 20260507040348 | 51 | 225 | 1.0 | 1.0 | 0.00 | 0.00 | 0.42 | 87 | 995.1 |
| 20260507040047 | 51 | 270 | 1.0 | 1.0 | 0.00 | 0.00 | 0.42 | 87 | 994.8 |
| 20260507035747 | 51 | 292 | 1.0 | 1.0 | 0.00 | 0.00 | 0.42 | 87 | 994.8 |
| 20260507035447 | 51 | 270 | 0.0 | 0.0 | 0.00 | 0.00 | 0.39 | 87 | 994.8 |
| 20260507035148 | 51 | 270 | 2.0 | 2.0 | 0.00 | 0.00 | 0.39 | 87 | 994.8 |
| 20260507034848 | 51 | 225 | 2.0 | 2.0 | 0.00 | 0.00 | 0.38 | 87 | 994.8 |
| 20260507034547 | 51 | 247 | 3.0 | 3.0 | 0.00 | 0.00 | 0.38 | 87 | 994.8 |
| 20260507034250 | 51 | 180 | 2.0 | 2.0 | 0.00 | 0.00 | 0.38 | 87 | 994.8 |
| 20260507033947 | 51 | 225 | 3.0 | 3.0 | 0.00 | 0.00 | 0.38 | 87 | 994.8 |
| 20260507033647 | 51 | 225 | 5.0 | 5.0 | 0.00 | 0.00 | 0.38 | 87 | 994.8 |
| 20260507033348 | 51 | 270 | 3.0 | 3.0 | 0.00 | 0.00 | 0.38 | 87 | 994.8 |
| 20260507033047 | 51 | 202 | 2.0 | 2.0 | 0.00 | 0.00 | 0.38 | 87 | 994.8 |
| 20260507032448 | 51 | 292 | 0.0 | 0.0 | 0.00 | 0.00 | 0.36 | 86 | 994.8 |
| 20260507032147 | 51 | 225 | 2.0 | 2.0 | 0.00 | 0.00 | 0.36 | 86 | 994.8 |
| 20260507031848 | 51 | 337 | 2.0 | 2.0 | 0.00 | 0.00 | 0.34 | 86 | 994.8 |
| 20260507031548 | 51 | 202 | 2.0 | 2.0 | 0.00 | 0.00 | 0.34 | 86 | 994.8 |
| 20260507031247 | 51 | 225 | 1.0 | 1.0 | 0.00 | 0.00 | 0.32 | 86 | 994.6 |
| 20260507030646 | 51 | 180 | 2.0 | 2.0 | 0.00 | 0.00 | 0.32 | 86 | 994.6 |
| 20260507030348 | 51 | 270 | 0.0 | 0.0 | 0.00 | 0.00 | 0.32 | 86 | 994.6 |
| 20260507030047 | 51 | 180 | 2.0 | 2.0 | 0.00 | 0.00 | 0.32 | 86 | 994.6 |
| 20260507025747 | 51 | 225 | 2.0 | 2.0 | 0.00 | 0.00 | 0.32 | 86 | 994.8 |
| 20260507025448 | 51 | 180 | 1.0 | 1.0 | 0.00 | 0.00 | 0.32 | 86 | 994.8 |
| 20260507025148 | 51 | 337 | 0.0 | 0.0 | 0.00 | 0.00 | 0.32 | 86 | 994.6 |
| 20260507024847 | 51 | 337 | 1.0 | 2.0 | 0.00 | 0.00 | 0.32 | 86 | 994.6 |
| 20260507024548 | 51 | 202 | 5.0 | 5.0 | 0.00 | 0.00 | 0.32 | 86 | 994.8 |
| 20260507024248 | 51 | 337 | 1.0 | 1.0 | 0.00 | 0.00 | 0.32 | 86 | 994.6 |
| 20260507023947 | 51 | 247 | 2.0 | 2.0 | 0.00 | 0.00 | 0.32 | 86 | 994.8 |
| 20260507023648 | 51 | 157 | 1.0 | 2.0 | 0.00 | 0.00 | 0.29 | 86 | 994.6 |
| 20260507023047 | 51 | 180 | 1.0 | 1.0 | 0.00 | 0.00 | 0.29 | 86 | 994.6 |
| 20260507022748 | 51 | 157 | 2.0 | 2.0 | 0.00 | 0.00 | 0.29 | 86 | 994.8 |
| 20260507022448 | 51 | 202 | 2.0 | 2.0 | 0.00 | 0.00 | 0.29 | 86 | 994.6 |
| 20260507022148 | 51 | 180 | 3.0 | 3.0 | 0.00 | 0.00 | 0.29 | 86 | 994.8 |
| 20260507021848 | 51 | 225 | 6.0 | 6.0 | 0.00 | 0.00 | 0.29 | 86 | 994.6 |
| 20260507021550 | 51 | 180 | 8.0 | 8.0 | 0.00 | 0.00 | 0.29 | 86 | 994.6 |
| 20260507021248 | 52 | 180 | 3.0 | 4.0 | 0.00 | 0.00 | 0.29 | 86 | 994.6 |
| 20260507020948 | 52 | 180 | 4.0 | 4.0 | 0.00 | 0.00 | 0.29 | 86 | 994.6 |
| 20260507020648 | 52 | 202 | 6.0 | 6.0 | 0.00 | 0.00 | 0.29 | 86 | 994.6 |
| 20260507020347 | 52 | 180 | 3.0 | 3.0 | 0.00 | 0.00 | 0.29 | 86 | 994.6 |
| 20260507020047 | 52 | 337 | 3.0 | 3.0 | 0.00 | 0.00 | 0.29 | 86 | 994.6 |
| 20260507015447 | 52 | 337 | 4.0 | 4.0 | 0.00 | 0.00 | 0.29 | 86 | 994.6 |
| 20260507015147 | 52 | 225 | 4.0 | 4.0 | 0.00 | 0.00 | 0.29 | 86 | 994.4 |
| 20260507014847 | 52 | 202 | 5.0 | 5.0 | 0.00 | 0.00 | 0.29 | 86 | 994.4 |
| 20260507014548 | 52 | 180 | 5.0 | 5.0 | 0.00 | 0.00 | 0.29 | 85 | 994.4 |
| 20260507014247 | 52 | 225 | 5.0 | 5.0 | 0.00 | 0.00 | 0.28 | 85 | 994.4 |
| 20260507013648 | 52 | 337 | 3.0 | 3.0 | 0.00 | 0.00 | 0.28 | 85 | 994.4 |
| 20260507013348 | 52 | 202 | 3.0 | 3.0 | 0.00 | 0.00 | 0.28 | 84 | 994.4 |
| 20260507013048 | 53 | 225 | 1.0 | 2.0 | 0.00 | 0.00 | 0.28 | 84 | 994.6 |
| 20260507012747 | 53 | 337 | 2.0 | 2.0 | 0.00 | 0.00 | 0.28 | 84 | 994.4 |
| 20260507012450 | 53 | 270 | 2.0 | 2.0 | 0.00 | 0.00 | 0.26 | 84 | 994.4 |
| 20260507012148 | 53 | 270 | 0.0 | 0.0 | 0.00 | 0.00 | 0.26 | 84 | 994.4 |
| 20260507011848 | 52 | 270 | 0.0 | 0.0 | 0.00 | 0.00 | 0.26 | 84 | 994.4 |
| 20260507011548 | 53 | 270 | 3.0 | 4.0 | 0.00 | 0.00 | 0.26 | 83 | 994.4 |
| 20260507011248 | 53 | 270 | 3.0 | 3.0 | 0.00 | 0.00 | 0.26 | 83 | 994.4 |
| 20260507010946 | 53 | 315 | 1.0 | 1.0 | 0.00 | 0.00 | 0.26 | 83 | 994.4 |
| 20260507010650 | 53 | 337 | 2.0 | 2.0 | 0.00 | 0.00 | 0.26 | 83 | 994.4 |
| 20260507010347 | 53 | 270 | 0.0 | 0.0 | 0.00 | 0.00 | 0.26 | 83 | 994.4 |
| 20260507010048 | 53 | 270 | 2.0 | 2.0 | 0.00 | 0.00 | 0.26 | 83 | 994.4 |
| 20260507005747 | 53 | 270 | 2.0 | 2.0 | 0.00 | 0.00 | 0.26 | 83 | 994.4 |
| 20260507005447 | 53 | 337 | 1.0 | 1.0 | 0.00 | 0.00 | 0.26 | 84 | 994.4 |
| 20260507005148 | 53 | 247 | 2.0 | 2.0 | 0.00 | 0.00 | 0.24 | 83 | 994.4 |
| 20260507004850 | 53 | 270 | 1.0 | 1.0 | 0.00 | 0.00 | 0.24 | 83 | 994.4 |
| 20260507004548 | 53 | 270 | 1.0 | 1.0 | 0.00 | 0.00 | 0.24 | 83 | 994.4 |
| 20260507004248 | 53 | 247 | 2.0 | 2.0 | 0.00 | 0.00 | 0.24 | 83 | 994.4 |
| 20260507003948 | 53 | 270 | 1.0 | 1.0 | 0.00 | 0.00 | 0.24 | 83 | 994.1 |
| 20260507003647 | 53 | 315 | 0.0 | 0.0 | 0.00 | 0.00 | 0.24 | 83 | 994.4 |
| 20260507003348 | 53 | 0 | 0.0 | 0.0 | 0.00 | 0.00 | 0.24 | 83 | 994.4 |
| 20260507003047 | 53 | 0 | 0.0 | 0.0 | 0.00 | 0.00 | 0.24 | 83 | 994.4 |
| 20260507002747 | 53 | 315 | 0.0 | 0.0 | 0.00 | 0.00 | 0.22 | 83 | 994.4 |